Weather Roundup
Issued by NWS Springfield, MO

Home | Current Version | Previous Version | Text Only | Print | Product List | Glossary On
Versions: 1 2 3 4 5 6 7 8 9 10 11 12 13 14 15 16 17 18 19 20 21 22 23 24 25 26 27 28 29 30 31 32 33 34 35 36 37 38 39 40 41 42 43 44 45 46 47 48 49 50
000
NZUS99 KSGF 280557
HRRSGF

HOURLY WEATHER
NATIONAL WEATHER SERVICE SPRINGFIELD MO
100 AM CDT SAT MAY 28 2016

......SGF CWA......

CITY           SKY/WX    TMP DP  RH WIND       PRES   REMARKS
SPRINGFIELD    PTCLDY    66  62  87 S9        29.82R
6HR MIN TEMP:  66; 6HR MAX TEMP:  73;

JOPLIN         CLOUDY    66  58  75 VRB3      29.82R
6HR MIN TEMP:  66; 6HR MAX TEMP:  74;

WEST PLAINS    CLOUDY    68  63  84 S8        29.88S
6HR MIN TEMP:  68; 6HR MAX TEMP:  70; 6HR PCP: TRACE;

ROLLA          MOCLDY    68  64  87 S14G21    29.82R
6HR MIN TEMP:  68; 6HR MAX TEMP:  71;


......SURROUNDING SGF CWA......

CITY           SKY/WX    TMP DP  RH WIND       PRES   REMARKS
CHANUTE        PTCLDY    61  58  90 SE12      29.75R
PARSONS        PTCLDY    61  59  93 VRB5      29.77F
COFFEYVILLE    PTCLDY    60  59  96 E6        29.76F
EMPORIA        CLOUDY    60  57  89 S13       29.71S
HARRISON AR    PTCLDY    65  61  87 S12       29.84F

......KANSAS AND MISSOURI......

CITY           SKY/WX    TMP DP  RH WIND       PRES   REMARKS
KANSAS CTY INT CLOUDY    60  58  92 NE8       29.73F
SEDALIA        MOCLDY    69  63  81 W14G28    29.79R
ST JOSEPH      LGT RAIN  60  58  92 NE13      29.72F
ST LOUIS       MOCLDY    71  67  87 S10       29.83S
WICHITA        MOCLDY    64  59  83 S15       29.69F
TOPEKA         CLOUDY    60  58  92 SE3       29.74R
OLATHE         MOCLDY    58  57  97 CALM      29.75S

......TENNESSEE......

CITY           SKY/WX    TMP DP  RH WIND       PRES   REMARKS
MEMPHIS        NOT AVBL
NASHVILLE      CLOUDY    73  62  68 SE3       30.01R

......ARKANSAS.......

CITY           SKY/WX    TMP DP  RH WIND       PRES   REMARKS
FAYETTEVILLE   CLOUDY    65  62  90 SE6       29.83F
FT SMITH       PTCLDY    66  61  84 NE5       29.82R
LITTLE ROCK    CLOUDY    69  66  90 CALM      29.88S

......OKLAHOMA.......

CITY           SKY/WX    TMP DP  RH WIND       PRES   REMARKS
TULSA          PTCLDY    68  65  90 SE8       29.75S
PONCA CITY     CLEAR     66  59  78 S7        29.73F
MCALESTER      CLEAR     67  62  84 S7        29.82R
OKLAHOMA CITY  CLEAR     64  61  90 S9        29.78R

......IOWA............

CITY           SKY/WX    TMP DP  RH WIND       PRES   REMARKS
DES MOINES     NOT AVBL
QUAD CITIES    MOCLDY    71  66  84 S16G23    29.75F

......ILLINOIS........

CITY           SKY/WX    TMP DP  RH WIND       PRES   REMARKS
QUINCY         NOT AVBL
CHICAGO        CLOUDY    69  65  86 S10       29.86F




USA.gov is the U.S. government's official web portal to all federal, state and local government web resources and services.